| time (UTC) | temp F | wind direction | speed MPH | gust MPH | rain 1hr in | rain 24hr in | rain mn in | humidity % | barometer mb |
| 20260504110554 | 54 | 0 | 0.0 | 0.0 | 0.00 | 0.00 | 0.00 | 91 | 1014.6 |
| 20260504100556 | 54 | 0 | 0.0 | 3.0 | 0.00 | 0.00 | 0.00 | 90 | 1014.6 |
| 20260504090104 | 55 | 244 | 1.0 | 7.0 | 0.00 | 0.00 | 0.00 | 89 | 1014.7 |
| 20260504081558 | 55 | 206 | 0.0 | 7.0 | 0.00 | 0.00 | 0.00 | 89 | 1015.0 |
| 20260504081057 | 55 | 221 | 1.0 | 4.0 | 0.00 | 0.00 | 0.00 | 89 | 1015.1 |
| 20260504080558 | 55 | 0 | 2.0 | 5.0 | 0.00 | 0.00 | 0.00 | 89 | 1015.1 |
| 20260504050557 | 55 | 0 | 1.0 | 4.0 | 0.00 | 0.00 | 0.00 | 87 | 1014.9 |
| 20260504045556 | 55 | 0 | 0.0 | 3.0 | 0.00 | 0.00 | 0.00 | 86 | 1014.9 |
| 20260504045057 | 55 | 0 | 0.0 | 3.0 | 0.00 | 0.00 | 0.00 | 86 | 1014.6 |
| 20260504044605 | 55 | 238 | 0.0 | 3.0 | 0.00 | 0.00 | 0.00 | 86 | 1014.6 |
| 20260504044056 | 55 | 244 | 0.0 | 3.0 | 0.00 | 0.00 | 0.00 | 86 | 1014.6 |
| 20260504043558 | 55 | 0 | 0.0 | 3.0 | 0.00 | 0.00 | 0.00 | 86 | 1014.6 |
| 20260504043059 | 55 | 0 | 0.0 | 3.0 | 0.00 | 0.00 | 0.00 | 86 | 1014.6 |
| 20260504042557 | 55 | 0 | 1.0 | 2.0 | 0.00 | 0.00 | 0.00 | 86 | 1014.5 |
| 20260504042056 | 55 | 0 | 0.0 | 4.0 | 0.00 | 0.00 | 0.00 | 86 | 1014.6 |
| 20260504041557 | 55 | 315 | 0.0 | 4.0 | 0.00 | 0.00 | 0.00 | 86 | 1014.4 |
| 20260504041056 | 55 | 252 | 0.0 | 3.0 | 0.00 | 0.00 | 0.00 | 86 | 1014.4 |
| 20260504040553 | 55 | 250 | 0.0 | 4.0 | 0.00 | 0.00 | 0.00 | 85 | 1014.4 |
| 20260504040107 | 55 | 212 | 0.0 | 4.0 | 0.00 | 0.00 | 0.00 | 85 | 1014.3 |
| 20260504035556 | 55 | 267 | 0.0 | 3.0 | 0.00 | 0.00 | 0.00 | 85 | 1014.2 |
| 20260504035056 | 56 | 273 | 1.0 | 6.0 | 0.00 | 0.00 | 0.00 | 84 | 1014.2 |
| 20260504034625 | 56 | 0 | 1.0 | 6.0 | 0.00 | 0.00 | 0.00 | 84 | 1014.1 |
| 20260504034056 | 56 | 231 | 1.0 | 5.0 | 0.00 | 0.00 | 0.00 | 84 | 1014.1 |
| 20260504033557 | 56 | 217 | 1.0 | 8.0 | 0.00 | 0.00 | 0.00 | 84 | 1014.1 |
| 20260504033057 | 56 | 309 | 1.0 | 8.0 | 0.00 | 0.00 | 0.00 | 85 | 1014.0 |
| 20260504032557 | 56 | 0 | 1.0 | 8.0 | 0.00 | 0.00 | 0.00 | 85 | 1013.9 |
| 20260504032056 | 56 | 221 | 1.0 | 7.0 | 0.00 | 0.00 | 0.00 | 85 | 1013.8 |
| 20260504031555 | 56 | 0 | 0.0 | 4.0 | 0.00 | 0.00 | 0.00 | 86 | 1013.8 |
| 20260504031057 | 56 | 290 | 0.0 | 6.0 | 0.00 | 0.00 | 0.00 | 86 | 1013.7 |
| 20260504030556 | 56 | 293 | 1.0 | 6.0 | 0.00 | 0.00 | 0.00 | 85 | 1013.7 |
| 20260504030120 | 57 | 280 | 1.0 | 7.0 | 0.00 | 0.00 | 0.00 | 85 | 1013.8 |
| 20260504025557 | 57 | 273 | 1.0 | 7.0 | 0.00 | 0.00 | 0.00 | 85 | 1013.7 |
| 20260504025057 | 57 | 246 | 2.0 | 8.0 | 0.00 | 0.00 | 0.00 | 85 | 1013.7 |
| 20260504024559 | 57 | 210 | 2.0 | 8.0 | 0.00 | 0.00 | 0.00 | 84 | 1013.6 |
| 20260504024056 | 58 | 229 | 1.0 | 7.0 | 0.00 | 0.00 | 0.00 | 84 | 1013.5 |
| 20260504023553 | 58 | 238 | 2.0 | 8.0 | 0.00 | 0.00 | 0.00 | 83 | 1013.5 |
| 20260504023054 | 58 | 191 | 2.0 | 8.0 | 0.00 | 0.00 | 0.00 | 83 | 1013.4 |
| 20260504022557 | 58 | 215 | 3.0 | 8.0 | 0.00 | 0.00 | 0.00 | 82 | 1013.4 |
| 20260504022056 | 58 | 242 | 2.0 | 8.0 | 0.00 | 0.00 | 0.00 | 83 | 1013.4 |
| 20260504021557 | 58 | 271 | 3.0 | 8.0 | 0.00 | 0.00 | 0.00 | 83 | 1013.4 |
| 20260504021057 | 58 | 260 | 2.0 | 8.0 | 0.00 | 0.00 | 0.00 | 84 | 1013.3 |
| 20260504020556 | 57 | 336 | 1.0 | 8.0 | 0.00 | 0.00 | 0.00 | 84 | 1013.3 |
| 20260504020105 | 57 | 299 | 3.0 | 11.0 | 0.00 | 0.00 | 0.00 | 83 | 1013.3 |
| 20260504015557 | 57 | 230 | 2.0 | 11.0 | 0.00 | 0.00 | 0.00 | 83 | 1013.4 |
| 20260504015057 | 58 | 288 | 3.0 | 9.0 | 0.00 | 0.00 | 0.00 | 83 | 1013.4 |
| 20260504014600 | 58 | 229 | 2.0 | 8.0 | 0.00 | 0.00 | 0.00 | 83 | 1013.6 |
| 20260504014056 | 58 | 238 | 2.0 | 9.0 | 0.00 | 0.00 | 0.00 | 83 | 1013.4 |
| 20260504013553 | 58 | 270 | 1.0 | 9.0 | 0.00 | 0.00 | 0.00 | 82 | 1013.5 |
| 20260504013055 | 58 | 309 | 3.0 | 8.0 | 0.00 | 0.00 | 0.00 | 82 | 1013.6 |
| 20260504012555 | 58 | 238 | 2.0 | 8.0 | 0.00 | 0.00 | 0.00 | 82 | 1013.6 |
| 20260504012053 | 58 | 264 | 1.0 | 10.0 | 0.00 | 0.00 | 0.00 | 82 | 1013.5 |
| 20260504011555 | 58 | 259 | 2.0 | 10.0 | 0.00 | 0.00 | 0.00 | 82 | 1013.5 |
| 20260504011055 | 58 | 209 | 2.0 | 10.0 | 0.00 | 0.00 | 0.00 | 82 | 1013.6 |
| 20260504010554 | 58 | 202 | 2.0 | 10.0 | 0.00 | 0.00 | 0.00 | 82 | 1013.6 |
| 20260504010055 | 58 | 237 | 2.0 | 9.0 | 0.00 | 0.00 | 0.00 | 82 | 1013.6 |
| 20260504005555 | 58 | 248 | 2.0 | 9.0 | 0.00 | 0.00 | 0.00 | 82 | 1013.6 |
| 20260504005057 | 58 | 238 | 2.0 | 10.0 | 0.00 | 0.00 | 0.00 | 81 | 1013.7 |
| 20260504004554 | 59 | 240 | 2.0 | 10.0 | 0.00 | 0.00 | 0.00 | 82 | 1013.7 |
| 20260504004054 | 59 | 223 | 2.0 | 10.0 | 0.00 | 0.00 | 0.00 | 82 | 1013.6 |
| 20260504003557 | 59 | 319 | 2.0 | 8.0 | 0.00 | 0.00 | 0.00 | 81 | 1013.6 |
| 20260504003052 | 59 | 272 | 2.0 | 9.0 | 0.00 | 0.00 | 0.00 | 81 | 1013.5 |
| 20260504002555 | 59 | 243 | 1.0 | 9.0 | 0.00 | 0.00 | 0.00 | 81 | 1013.5 |
| 20260504002056 | 59 | 257 | 2.0 | 8.0 | 0.00 | 0.00 | 0.00 | 80 | 1013.4 |
| 20260504001605 | 59 | 308 | 1.0 | 7.0 | 0.00 | 0.00 | 0.00 | 80 | 1013.4 |
| 20260504001055 | 59 | 231 | 1.0 | 7.0 | 0.00 | 0.00 | 0.00 | 80 | 1013.4 |
| 20260504000556 | 59 | 292 | 2.0 | 8.0 | 0.00 | 0.00 | 0.00 | 80 | 1013.4 |
| 20260504000056 | 59 | 0 | 2.0 | 11.0 | 0.00 | 0.00 | 0.00 | 80 | 1013.3 |
| 20260503235554 | 59 | 319 | 2.0 | 11.0 | 0.00 | 0.00 | 0.00 | 80 | 1013.4 |
| 20260503235054 | 59 | 252 | 2.0 | 11.0 | 0.00 | 0.00 | 0.00 | 80 | 1013.3 |
| 20260503234555 | 59 | 311 | 2.0 | 9.0 | 0.00 | 0.00 | 0.00 | 80 | 1013.3 |
| 20260503234055 | 59 | 232 | 2.0 | 9.0 | 0.00 | 0.00 | 0.00 | 81 | 1013.3 |
| 20260503233551 | 59 | 226 | 3.0 | 9.0 | 0.00 | 0.00 | 0.00 | 80 | 1013.2 |
| 20260503233059 | 60 | 65 | 1.0 | 8.0 | 0.00 | 0.00 | 0.00 | 81 | 1013.2 |
| 20260503232552 | 60 | 324 | 2.0 | 8.0 | 0.00 | 0.00 | 0.00 | 80 | 1013.2 |
| 20260503232052 | 59 | 254 | 2.0 | 8.0 | 0.00 | 0.00 | 0.00 | 81 | 1013.3 |
| 20260503231556 | 59 | 257 | 2.0 | 12.0 | 0.00 | 0.00 | 0.00 | 81 | 1013.3 |
| 20260503231056 | 59 | 266 | 2.0 | 12.0 | 0.00 | 0.00 | 0.00 | 80 | 1013.2 |
| 20260503230552 | 59 | 259 | 2.0 | 9.0 | 0.00 | 0.00 | 0.00 | 80 | 1013.3 |
| 20260503230054 | 59 | 271 | 1.0 | 9.0 | 0.00 | 0.00 | 0.00 | 80 | 1013.3 |
| 20260503225551 | 59 | 0 | 2.0 | 11.0 | 0.00 | 0.00 | 0.00 | 79 | 1013.2 |
| 20260503225055 | 59 | 211 | 1.0 | 11.0 | 0.00 | 0.00 | 0.00 | 80 | 1013.3 |
| 20260503224553 | 60 | 194 | 2.0 | 11.0 | 0.00 | 0.00 | 0.00 | 80 | 1013.3 |
| 20260503224055 | 60 | 247 | 2.0 | 10.0 | 0.00 | 0.00 | 0.00 | 79 | 1013.4 |
| 20260503223552 | 60 | 200 | 3.0 | 9.0 | 0.00 | 0.00 | 0.00 | 79 | 1013.5 |
| 20260503223054 | 60 | 313 | 2.0 | 9.0 | 0.00 | 0.00 | 0.00 | 79 | 1013.4 |
| 20260503222555 | 61 | 288 | 3.0 | 10.0 | 0.00 | 0.00 | 0.00 | 77 | 1013.5 |
| 20260503222054 | 61 | 271 | 2.0 | 10.0 | 0.00 | 0.00 | 0.00 | 77 | 1013.5 |
| 20260503221555 | 62 | 284 | 2.0 | 10.0 | 0.00 | 0.00 | 0.00 | 77 | 1013.4 |
| 20260503221051 | 62 | 249 | 3.0 | 10.0 | 0.00 | 0.00 | 0.00 | 77 | 1013.4 |
| 20260503220551 | 62 | 240 | 3.0 | 11.0 | 0.00 | 0.00 | 0.00 | 76 | 1013.4 |
| 20260503220055 | 62 | 218 | 3.0 | 13.0 | 0.00 | 0.00 | 0.00 | 77 | 1013.4 |
| 20260503215554 | 62 | 278 | 3.0 | 13.0 | 0.00 | 0.00 | 0.00 | 77 | 1013.4 |
| 20260503215052 | 62 | 217 | 2.0 | 10.0 | 0.00 | 0.00 | 0.00 | 77 | 1013.4 |
| 20260503214602 | 62 | 277 | 1.0 | 10.0 | 0.00 | 0.00 | 0.00 | 78 | 1013.4 |
| 20260503214055 | 62 | 267 | 2.0 | 9.0 | 0.00 | 0.00 | 0.00 | 77 | 1013.4 |
| 20260503213552 | 62 | 214 | 2.0 | 8.0 | 0.00 | 0.00 | 0.00 | 78 | 1013.3 |
| 20260503213054 | 61 | 242 | 2.0 | 8.0 | 0.00 | 0.00 | 0.00 | 78 | 1013.3 |
| 20260503212552 | 62 | 219 | 2.0 | 9.0 | 0.00 | 0.00 | 0.00 | 76 | 1013.4 |
| 20260503212055 | 62 | 300 | 2.0 | 9.0 | 0.00 | 0.00 | 0.00 | 77 | 1013.5 |
| 20260503211556 | 62 | 301 | 2.0 | 11.0 | 0.00 | 0.00 | 0.00 | 76 | 1013.4 |
| 20260503211054 | 62 | 0 | 1.0 | 12.0 | 0.00 | 0.00 | 0.00 | 77 | 1013.5 |
| 20260503210552 | 62 | 270 | 4.0 | 12.0 | 0.00 | 0.00 | 0.00 | 76 | 1013.4 |
| 20260503210055 | 62 | 232 | 2.0 | 10.0 | 0.00 | 0.00 | 0.00 | 78 | 1013.4 |
| 20260503205554 | 62 | 182 | 1.0 | 9.0 | 0.00 | 0.00 | 0.00 | 78 | 1013.3 |
| 20260503205053 | 62 | 257 | 2.0 | 12.0 | 0.00 | 0.00 | 0.00 | 78 | 1013.4 |
| 20260503204600 | 62 | 237 | 3.0 | 12.0 | 0.00 | 0.00 | 0.00 | 78 | 1013.4 |
| 20260503204054 | 61 | 241 | 1.0 | 11.0 | 0.00 | 0.00 | 0.00 | 79 | 1013.4 |
| 20260503203553 | 61 | 231 | 2.0 | 11.0 | 0.00 | 0.00 | 0.00 | 79 | 1013.3 |
| 20260503203056 | 60 | 296 | 2.0 | 9.0 | 0.00 | 0.00 | 0.00 | 79 | 1013.3 |
| 20260503202553 | 60 | 240 | 4.0 | 9.0 | 0.00 | 0.00 | 0.00 | 78 | 1013.5 |
| 20260503202057 | 60 | 309 | 2.0 | 10.0 | 0.00 | 0.00 | 0.00 | 79 | 1013.4 |
| 20260503201558 | 60 | 252 | 2.0 | 10.0 | 0.00 | 0.00 | 0.00 | 78 | 1013.5 |
| 20260503201052 | 59 | 277 | 2.0 | 10.0 | 0.00 | 0.00 | 0.00 | 78 | 1013.6 |
| 20260503200558 | 59 | 245 | 2.0 | 10.0 | 0.00 | 0.00 | 0.00 | 77 | 1013.6 |
| 20260503200100 | 60 | 304 | 2.0 | 10.0 | 0.00 | 0.00 | 0.00 | 76 | 1013.6 |
| 20260503195554 | 60 | 31 | 2.0 | 9.0 | 0.00 | 0.00 | 0.00 | 77 | 1013.6 |
| 20260503195054 | 60 | 306 | 1.0 | 9.0 | 0.00 | 0.00 | 0.00 | 77 | 1013.7 |
| 20260503194559 | 60 | 309 | 1.0 | 9.0 | 0.00 | 0.00 | 0.00 | 78 | 1013.7 |
| 20260503194054 | 60 | 261 | 3.0 | 9.0 | 0.00 | 0.00 | 0.00 | 77 | 1013.8 |
| 20260503193554 | 60 | 0 | 1.0 | 8.0 | 0.00 | 0.00 | 0.00 | 78 | 1013.7 |
| 20260503193108 | 60 | 266 | 1.0 | 8.0 | 0.00 | 0.00 | 0.00 | 77 | 1013.7 |
| 20260503192553 | 60 | 0 | 2.0 | 8.0 | 0.00 | 0.00 | 0.00 | 77 | 1013.6 |
| 20260503192053 | 60 | 311 | 0.0 | 7.0 | 0.00 | 0.00 | 0.00 | 77 | 1013.7 |
| 20260503191559 | 60 | 315 | 1.0 | 8.0 | 0.00 | 0.00 | 0.00 | 77 | 1013.6 |
| 20260503191053 | 59 | 288 | 1.0 | 8.0 | 0.00 | 0.00 | 0.00 | 78 | 1013.7 |
| 20260503190555 | 59 | 295 | 1.0 | 7.0 | 0.00 | 0.00 | 0.00 | 78 | 1013.7 |
| 20260503190107 | 59 | 240 | 2.0 | 7.0 | 0.00 | 0.00 | 0.00 | 78 | 1013.8 |
| 20260503185555 | 59 | 227 | 1.0 | 7.0 | 0.00 | 0.00 | 0.00 | 80 | 1013.7 |
| 20260503185052 | 58 | 302 | 1.0 | 6.0 | 0.00 | 0.00 | 0.00 | 82 | 1013.7 |
| 20260503184556 | 58 | 267 | 1.0 | 7.0 | 0.00 | 0.00 | 0.00 | 83 | 1013.8 |
| 20260503184055 | 57 | 280 | 0.0 | 7.0 | 0.00 | 0.00 | 0.00 | 84 | 1013.7 |
| 20260503183555 | 57 | 234 | 1.0 | 7.0 | 0.00 | 0.00 | 0.00 | 84 | 1013.8 |
| 20260503183101 | 57 | 257 | 2.0 | 10.0 | 0.00 | 0.00 | 0.00 | 85 | 1013.7 |
| 20260503182554 | 57 | 275 | 2.0 | 10.0 | 0.00 | 0.00 | 0.00 | 85 | 1013.7 |
| 20260503182054 | 56 | 237 | 2.0 | 10.0 | 0.00 | 0.00 | 0.00 | 87 | 1013.8 |
| 20260503181552 | 56 | 296 | 2.0 | 8.0 | 0.00 | 0.00 | 0.00 | 87 | 1013.7 |
| 20260503181055 | 56 | 208 | 1.0 | 7.0 | 0.00 | 0.00 | 0.00 | 87 | 1013.8 |
| 20260503180557 | 56 | 221 | 2.0 | 7.0 | 0.00 | 0.00 | 0.00 | 87 | 1013.8 |
| 20260503180059 | 56 | 279 | 2.0 | 7.0 | 0.00 | 0.00 | 0.00 | 88 | 1013.7 |
| 20260503175555 | 56 | 0 | 1.0 | 8.0 | 0.00 | 0.00 | 0.00 | 88 | 1013.6 |
| 20260503175054 | 56 | 249 | 1.0 | 8.0 | 0.00 | 0.00 | 0.00 | 88 | 1013.6 |
| 20260503174557 | 56 | 231 | 2.0 | 5.0 | 0.00 | 0.00 | 0.00 | 88 | 1013.5 |
| 20260503174057 | 57 | 288 | 0.0 | 3.0 | 0.00 | 0.00 | 0.00 | 89 | 1013.5 |
| 20260503173555 | 57 | 217 | 0.0 | 5.0 | 0.00 | 0.00 | 0.00 | 87 | 1013.5 |
| 20260503173112 | 57 | 0 | 0.0 | 8.0 | 0.00 | 0.00 | 0.00 | 86 | 1013.5 |
| 20260503172552 | 57 | 0 | 1.0 | 8.0 | 0.00 | 0.00 | 0.00 | 84 | 1013.5 |
| 20260503172058 | 57 | 236 | 2.0 | 8.0 | 0.00 | 0.00 | 0.00 | 83 | 1013.6 |
| 20260503171557 | 57 | 211 | 2.0 | 8.0 | 0.00 | 0.00 | 0.00 | 82 | 1013.5 |
| 20260503171052 | 57 | 219 | 1.0 | 8.0 | 0.00 | 0.00 | 0.00 | 82 | 1013.5 |
| 20260503170555 | 57 | 0 | 2.0 | 8.0 | 0.00 | 0.00 | 0.00 | 83 | 1013.5 |
| 20260503150554 | 55 | 254 | 2.0 | 4.0 | 0.00 | 0.00 | 0.00 | 85 | 1012.9 |
| 20260503150110 | 55 | 238 | 1.0 | 4.0 | 0.00 | 0.00 | 0.00 | 85 | 1012.8 |
| 20260503140113 | 54 | 257 | 1.0 | 7.0 | 0.00 | 0.00 | 0.00 | 87 | 1012.1 |
| 20260503131051 | 54 | 228 | 0.0 | 3.0 | 0.00 | 0.00 | 0.00 | 87 | 1011.5 |
| 20260503130555 | 54 | 0 | 0.0 | 3.0 | 0.00 | 0.00 | 0.00 | 87 | 1011.5 |